RYR6A LFOB-EPKK

Flight info

Callsign RYR6A
Flight time 1h 45m
Altitude 35000
Route RANUX DCT VALEK/N0455F370 DCT LIPNI DCT LIMGO DCT BOMBI L984 LONLI DCT ABERU L984 OKG DCT SOPAV DCT PADKA
Aircraft B38M/M-SDE1FGHILORVWXY/HB1

Departure

Time 2026-05-05 14:09
Airport Beauvais-Tillé airport (LFOB)

Arrival

Time 2026-05-05 15:54
Airport Kraków John Paul II International Airport (EPKK)
Time Latitude Longitude Altitude Speed Heading
2026-05-05 13:40 49.45930 2.11458 354 ft 0 kts 312°
2026-05-05 13:58 49.45924 2.11468 354 ft 5 kts 312°
2026-05-05 13:58 49.45897 2.11513 359 ft 0 kts 314°
2026-05-05 13:59 49.45892 2.11519 362 ft 1 kts 347°
2026-05-05 13:59 49.45886 2.11522 360 ft 3 kts 337°
2026-05-05 14:00 49.45837 2.11488 360 ft 6 kts 43°
2026-05-05 14:00 49.45807 2.11444 363 ft 10 kts 44°
2026-05-05 14:00 49.45803 2.11438 363 ft 0 kts 43°
2026-05-05 14:04 49.45805 2.11440 354 ft 1 kts 43°
2026-05-05 14:04 49.45806 2.11451 362 ft 2 kts 91°
2026-05-05 14:04 49.45787 2.11507 355 ft 10 kts 132°
2026-05-05 14:04 49.45730 2.11600 354 ft 11 kts 143°
2026-05-05 14:05 49.45670 2.11576 356 ft 12 kts 220°
2026-05-05 14:05 49.45582 2.11455 354 ft 22 kts 221°
2026-05-05 14:05 49.45457 2.11307 362 ft 20 kts 188°
2026-05-05 14:05 49.45370 2.11440 364 ft 19 kts 123°
2026-05-05 14:06 49.45299 2.11607 363 ft 20 kts 123°
2026-05-05 14:06 49.45210 2.11810 364 ft 26 kts 123°
2026-05-05 14:06 49.45090 2.12083 365 ft 36 kts 123°
2026-05-05 14:06 49.44940 2.12431 360 ft 41 kts 123°
2026-05-05 14:07 49.44784 2.12795 359 ft 40 kts 123°
2026-05-05 14:07 49.44682 2.13065 366 ft 16 kts 105°
2026-05-05 14:07 49.44651 2.13183 362 ft 6 kts 154°
2026-05-05 14:07 49.44622 2.13146 368 ft 6 kts 282°
2026-05-05 14:08 49.44646 2.13106 363 ft 3 kts 303°
2026-05-05 14:08 49.44646 2.13105 363 ft 0 kts 303°
2026-05-05 14:08 49.44664 2.13064 365 ft 28 kts 304°
2026-05-05 14:09 49.44947 2.12414 363 ft 115 kts 303°
2026-05-05 14:09 49.45523 2.11093 480 ft 172 kts 304°
2026-05-05 14:09 49.46167 2.09541 1575 ft 175 kts 306°
2026-05-05 14:09 49.46844 2.07952 2576 ft 181 kts 312°
2026-05-05 14:10 49.47818 2.06669 3238 ft 193 kts 346°
2026-05-05 14:10 49.49194 2.06836 3755 ft 218 kts 30°
2026-05-05 14:10 49.50451 2.08352 4505 ft 240 kts 40°
2026-05-05 14:10 49.51815 2.09969 5464 ft 252 kts 41°
2026-05-05 14:11 49.52828 2.12148 6621 ft 256 kts 70°
2026-05-05 14:11 49.52938 2.14896 7695 ft 264 kts 103°
2026-05-05 14:11 49.52077 2.17420 8804 ft 272 kts 123°
2026-05-05 14:11 49.51045 2.19863 9821 ft 277 kts 117°
2026-05-05 14:12 49.50057 2.22510 10644 ft 290 kts 118°
2026-05-05 14:12 49.49002 2.25293 11192 ft 311 kts 118°
2026-05-05 14:12 49.47886 2.28198 11783 ft 326 kts 119°
2026-05-05 14:12 49.46704 2.31251 12471 ft 339 kts 119°
2026-05-05 14:13 49.45483 2.34386 13310 ft 344 kts 119°
2026-05-05 14:13 49.44296 2.37607 14130 ft 348 kts 114°
2026-05-05 14:13 49.43597 2.41157 14922 ft 349 kts 99°
2026-05-05 14:13 49.43168 2.44854 15664 ft 354 kts 102°
2026-05-05 14:14 49.42636 2.48566 16393 ft 358 kts 103°
2026-05-05 14:14 49.42092 2.52324 17125 ft 362 kts 103°
2026-05-05 14:14 49.41728 2.54837 17593 ft 365 kts 104°
2026-05-05 14:14 49.41174 2.58660 18276 ft 369 kts 104°
2026-05-05 14:15 49.40418 2.63853 19102 ft 374 kts 104°
2026-05-05 14:15 49.40040 2.66444 19504 ft 377 kts 104°
2026-05-05 14:15 49.39463 2.70389 20116 ft 381 kts 104°
2026-05-05 14:15 49.38879 2.74378 20732 ft 384 kts 104°
2026-05-05 14:16 49.38285 2.78418 21321 ft 388 kts 104°
2026-05-05 14:16 49.37688 2.82466 21908 ft 392 kts 104°
2026-05-05 14:16 49.37083 2.86561 22478 ft 396 kts 104°
2026-05-05 14:16 49.36478 2.90646 23038 ft 399 kts 104°
2026-05-05 14:17 49.35857 2.94831 23567 ft 403 kts 104°
2026-05-05 14:17 49.35229 2.99048 24068 ft 406 kts 104°
2026-05-05 14:17 49.34596 3.03283 24576 ft 409 kts 104°
2026-05-05 14:17 49.33959 3.07542 25076 ft 412 kts 104°
2026-05-05 14:18 49.33312 3.11847 25591 ft 414 kts 104°
2026-05-05 14:18 49.32663 3.16160 26106 ft 417 kts 104°
2026-05-05 14:18 49.32005 3.20519 26559 ft 421 kts 104°
2026-05-05 14:18 49.31342 3.24898 27044 ft 424 kts 104°
2026-05-05 14:19 49.30679 3.29265 27526 ft 426 kts 104°
2026-05-05 14:19 49.30002 3.33716 27950 ft 430 kts 104°
2026-05-05 14:19 49.29319 3.38188 28396 ft 433 kts 104°
2026-05-05 14:19 49.28632 3.42678 28833 ft 436 kts 104°
2026-05-05 14:20 49.27934 3.47224 29244 ft 439 kts 104°
2026-05-05 14:20 49.27231 3.51784 29692 ft 442 kts 104°
2026-05-05 14:20 49.26520 3.56390 30202 ft 444 kts 105°
2026-05-05 14:20 49.25804 3.61013 30634 ft 448 kts 105°
2026-05-05 14:21 49.25090 3.65610 31064 ft 450 kts 105°
2026-05-05 14:21 49.24364 3.70271 31549 ft 451 kts 105°
2026-05-05 14:21 49.23637 3.74931 32152 ft 448 kts 105°
2026-05-05 14:21 49.22913 3.79562 32760 ft 445 kts 105°
2026-05-05 14:22 49.22193 3.84147 33342 ft 443 kts 105°
2026-05-05 14:22 49.21474 3.88711 33880 ft 440 kts 105°
2026-05-05 14:22 49.20756 3.93258 34276 ft 439 kts 106°
2026-05-05 14:22 49.20035 3.97807 34592 ft 441 kts 106°
2026-05-05 14:23 49.19309 4.02377 34789 ft 443 kts 106°
2026-05-05 14:23 49.18577 4.06975 34810 ft 443 kts 106°
2026-05-05 14:23 49.17117 4.16105 34800 ft 441 kts 106°
2026-05-05 14:24 49.15660 4.25168 34803 ft 441 kts 106°
2026-05-05 14:24 49.14435 4.34345 34785 ft 444 kts 93°
2026-05-05 14:25 49.14793 4.39034 34800 ft 448 kts 77°
2026-05-05 14:25 49.15922 4.43521 34804 ft 454 kts 68°
2026-05-05 14:25 49.18421 4.52391 34809 ft 453 kts 72°
2026-05-05 14:26 49.20712 4.61331 34797 ft 454 kts 71°
2026-05-05 14:26 49.23078 4.70274 34807 ft 454 kts 71°
2026-05-05 14:27 49.25438 4.79159 34806 ft 458 kts 71°
2026-05-05 14:27 49.27847 4.88261 34802 ft 461 kts 71°
2026-05-05 14:28 49.30237 4.97320 34803 ft 461 kts 71°
2026-05-05 14:28 49.32634 5.06441 34816 ft 462 kts 71°
2026-05-05 14:29 49.35028 5.15588 34808 ft 462 kts 71°
2026-05-05 14:29 49.37419 5.24758 34820 ft 463 kts 71°
2026-05-05 14:30 49.39807 5.33951 34821 ft 463 kts 71°
2026-05-05 14:30 49.42191 5.43170 34821 ft 464 kts 72°
2026-05-05 14:31 49.44566 5.52391 34824 ft 464 kts 72°
2026-05-05 14:31 49.46923 5.61577 34823 ft 465 kts 72°
2026-05-05 14:32 49.49288 5.70835 34828 ft 465 kts 72°
2026-05-05 14:32 49.51649 5.80111 34825 ft 465 kts 72°
2026-05-05 14:33 49.54002 5.89398 34829 ft 465 kts 72°
2026-05-05 14:33 49.56347 5.98688 34830 ft 465 kts 72°
2026-05-05 14:34 49.58686 6.07995 34823 ft 466 kts 73°
2026-05-05 14:34 49.61006 6.17253 34826 ft 465 kts 73°
2026-05-05 14:35 49.63330 6.26569 34827 ft 465 kts 73°
2026-05-05 14:35 49.64999 6.36134 34832 ft 460 kts 82°
2026-05-05 14:36 49.66670 6.45733 34827 ft 462 kts 78°
2026-05-05 14:36 49.68386 6.55295 34828 ft 463 kts 79°
2026-05-05 14:37 49.70080 6.64885 34830 ft 463 kts 79°
2026-05-05 14:37 49.71756 6.74435 34822 ft 463 kts 79°
2026-05-05 14:38 49.73435 6.84056 34821 ft 463 kts 79°
2026-05-05 14:38 49.75108 6.93694 34825 ft 464 kts 79°
2026-05-05 14:39 49.76774 7.03348 34836 ft 464 kts 79°
2026-05-05 14:39 49.78425 7.12961 34843 ft 465 kts 79°
2026-05-05 14:40 49.80077 7.22637 34849 ft 465 kts 79°
2026-05-05 14:40 49.81723 7.32330 34855 ft 466 kts 79°
2026-05-05 14:41 49.83364 7.42051 34853 ft 466 kts 80°
2026-05-05 14:41 49.84998 7.51785 34843 ft 467 kts 80°
2026-05-05 14:42 49.86619 7.61492 34843 ft 467 kts 80°
2026-05-05 14:42 49.88238 7.71250 34831 ft 468 kts 80°
2026-05-05 14:43 49.89854 7.81042 34833 ft 469 kts 80°
2026-05-05 14:43 49.91464 7.90854 34831 ft 470 kts 80°
2026-05-05 14:44 49.93072 8.00709 34836 ft 470 kts 80°
2026-05-05 14:44 49.94671 8.10568 34841 ft 471 kts 80°
2026-05-05 14:45 49.96252 8.20371 34844 ft 471 kts 80°
2026-05-05 14:45 49.97838 8.30268 34848 ft 472 kts 80°
2026-05-05 14:46 49.99418 8.40191 34851 ft 473 kts 80°
2026-05-05 14:46 50.00989 8.50110 34827 ft 474 kts 80°
2026-05-05 14:47 50.02560 8.60079 34827 ft 474 kts 80°
2026-05-05 14:47 50.04125 8.70058 34836 ft 475 kts 81°
2026-05-05 14:48 50.05642 8.80035 34823 ft 473 kts 84°
2026-05-05 14:48 50.05984 8.85083 34815 ft 465 kts 96°
2026-05-05 14:48 50.05815 8.90111 34834 ft 464 kts 98°
2026-05-05 14:49 50.05881 9.00137 34825 ft 469 kts 91°
2026-05-05 14:49 50.06159 9.10262 34819 ft 468 kts 92°
2026-05-05 14:50 50.06331 9.20402 34815 ft 468 kts 92°
2026-05-05 14:50 50.06470 9.30551 34820 ft 469 kts 93°
2026-05-05 14:51 50.06602 9.40716 34815 ft 470 kts 93°
2026-05-05 14:51 50.06724 9.50853 34818 ft 471 kts 93°
2026-05-05 14:52 50.06836 9.61109 34817 ft 472 kts 93°
2026-05-05 14:52 50.06939 9.71277 34809 ft 473 kts 93°
2026-05-05 14:53 50.07039 9.81524 34814 ft 473 kts 93°
2026-05-05 14:53 50.07135 9.91790 34776 ft 473 kts 93°
2026-05-05 14:54 50.07222 10.02037 34799 ft 474 kts 94°
2026-05-05 14:54 50.07292 10.12283 34790 ft 474 kts 94°
2026-05-05 14:55 50.07336 10.22556 34795 ft 474 kts 94°
2026-05-05 14:55 50.07394 10.32841 34791 ft 475 kts 94°
2026-05-05 14:56 50.07440 10.43131 34787 ft 475 kts 94°
2026-05-05 14:56 50.07478 10.53418 34791 ft 476 kts 94°
2026-05-05 14:57 50.07507 10.63721 34789 ft 476 kts 94°
2026-05-05 14:57 50.07526 10.74049 34786 ft 477 kts 94°
2026-05-05 14:58 50.07532 10.84385 34789 ft 477 kts 94°
2026-05-05 14:58 50.07530 10.94682 34791 ft 478 kts 94°
2026-05-05 14:59 50.07520 11.05031 34783 ft 478 kts 94°
2026-05-05 14:59 50.07503 11.13656 34791 ft 479 kts 94°
2026-05-05 15:00 50.07477 11.24035 34781 ft 480 kts 94°
2026-05-05 15:00 50.07443 11.34442 34790 ft 480 kts 94°
2026-05-05 15:01 50.07399 11.44825 34785 ft 480 kts 94°
2026-05-05 15:01 50.07348 11.55204 34785 ft 480 kts 94°
2026-05-05 15:02 50.07286 11.65595 34799 ft 480 kts 94°
2026-05-05 15:02 50.07216 11.75921 34807 ft 480 kts 94°
2026-05-05 15:03 50.07136 11.86319 34803 ft 480 kts 94°
2026-05-05 15:03 50.07046 11.96723 34803 ft 480 kts 94°
2026-05-05 15:04 50.06949 12.07132 34804 ft 480 kts 94°
2026-05-05 15:04 50.06825 12.17529 34783 ft 480 kts 94°
2026-05-05 15:05 50.06693 12.27921 35162 ft 479 kts 94°
2026-05-05 15:05 50.06625 12.33109 35638 ft 477 kts 94°
2026-05-05 15:05 50.06555 12.38206 36005 ft 477 kts 94°
2026-05-05 15:06 50.06550 12.43377 36358 ft 477 kts 92°
2026-05-05 15:06 50.06560 12.48532 36705 ft 477 kts 92°
2026-05-05 15:06 50.06560 12.53706 36819 ft 478 kts 93°
2026-05-05 15:07 50.06547 12.64097 36792 ft 480 kts 93°
2026-05-05 15:07 50.06526 12.74501 36796 ft 481 kts 93°
2026-05-05 15:08 50.06496 12.84911 36794 ft 481 kts 93°
2026-05-05 15:08 50.06456 12.95329 36795 ft 481 kts 93°
2026-05-05 15:09 50.06407 13.05697 36795 ft 482 kts 93°
2026-05-05 15:09 50.06349 13.16192 36791 ft 482 kts 93°
2026-05-05 15:10 50.06282 13.26569 36791 ft 483 kts 93°
2026-05-05 15:10 50.06205 13.37014 36787 ft 483 kts 93°
2026-05-05 15:11 50.06118 13.47481 36784 ft 483 kts 93°
2026-05-05 15:11 50.06022 13.57949 36784 ft 483 kts 93°
2026-05-05 15:12 50.05917 13.68395 36785 ft 483 kts 93°
2026-05-05 15:12 50.05802 13.78860 36781 ft 483 kts 93°
2026-05-05 15:13 50.05678 13.89310 36779 ft 483 kts 93°
2026-05-05 15:13 50.05545 13.99765 36777 ft 483 kts 93°
2026-05-05 15:14 50.05402 14.10156 36773 ft 483 kts 93°
2026-05-05 15:14 50.05250 14.20599 36776 ft 483 kts 93°
2026-05-05 15:15 50.05089 14.31053 36773 ft 483 kts 93°
2026-05-05 15:15 50.04918 14.41501 36773 ft 483 kts 93°
2026-05-05 15:16 50.04738 14.51947 36771 ft 483 kts 93°
2026-05-05 15:16 50.04548 14.62397 36776 ft 483 kts 93°
2026-05-05 15:17 50.04349 14.72832 36775 ft 483 kts 93°
2026-05-05 15:17 50.04141 14.83266 36777 ft 482 kts 93°
2026-05-05 15:18 50.03923 14.93694 36776 ft 482 kts 93°
2026-05-05 15:18 50.03698 15.04078 36775 ft 482 kts 93°
2026-05-05 15:19 50.03462 15.14502 36772 ft 482 kts 93°
2026-05-05 15:19 50.03216 15.24926 36769 ft 482 kts 94°
2026-05-05 15:20 50.02962 15.35341 36761 ft 482 kts 94°
2026-05-05 15:20 50.02698 15.45763 36758 ft 481 kts 94°
2026-05-05 15:21 50.02425 15.56166 36748 ft 482 kts 94°
2026-05-05 15:21 50.02142 15.66581 36745 ft 482 kts 94°
2026-05-05 15:22 50.01852 15.76923 36745 ft 482 kts 94°
2026-05-05 15:22 50.01551 15.87343 36747 ft 482 kts 94°
2026-05-05 15:23 50.01240 15.97755 36755 ft 482 kts 94°
2026-05-05 15:23 50.00921 16.08170 36762 ft 482 kts 94°
2026-05-05 15:24 50.00592 16.18561 36772 ft 481 kts 94°
2026-05-05 15:24 50.00254 16.28952 36780 ft 481 kts 94°
2026-05-05 15:25 49.99907 16.39340 36784 ft 481 kts 94°
2026-05-05 15:25 49.99552 16.49718 36787 ft 481 kts 94°
2026-05-05 15:26 49.99185 16.60107 36792 ft 481 kts 94°
2026-05-05 15:26 49.98811 16.70473 36793 ft 481 kts 94°
2026-05-05 15:27 49.98430 16.80784 36796 ft 480 kts 94°
2026-05-05 15:27 49.98037 16.91147 36804 ft 480 kts 94°
2026-05-05 15:28 49.97636 17.01504 36801 ft 480 kts 94°
2026-05-05 15:28 49.97224 17.11864 36800 ft 480 kts 94°
2026-05-05 15:29 49.96804 17.22210 36804 ft 480 kts 95°
2026-05-05 15:29 49.96376 17.32558 36807 ft 479 kts 95°
2026-05-05 15:30 49.95937 17.42898 36808 ft 479 kts 95°
2026-05-05 15:30 49.95494 17.53167 36808 ft 479 kts 95°
2026-05-05 15:31 49.95041 17.63506 36812 ft 479 kts 95°
2026-05-05 15:31 49.94582 17.73791 36674 ft 471 kts 95°
2026-05-05 15:31 49.94351 17.78871 35955 ft 470 kts 95°
2026-05-05 15:32 49.94120 17.83933 35277 ft 469 kts 95°
2026-05-05 15:32 49.93886 17.88996 34565 ft 469 kts 95°
2026-05-05 15:32 49.93654 17.93991 33852 ft 470 kts 95°
2026-05-05 15:32 49.93416 17.99054 33014 ft 471 kts 95°
2026-05-05 15:33 49.93186 18.04104 32168 ft 472 kts 94°
2026-05-05 15:33 49.93037 18.09178 31316 ft 473 kts 94°
2026-05-05 15:33 49.92893 18.14280 30465 ft 474 kts 94°
2026-05-05 15:33 49.92743 18.19399 29590 ft 475 kts 94°
2026-05-05 15:34 49.92591 18.24500 28788 ft 472 kts 94°
2026-05-05 15:34 49.92438 18.29562 28082 ft 468 kts 94°
2026-05-05 15:34 49.92284 18.34579 27445 ft 463 kts 94°
2026-05-05 15:34 49.92130 18.39543 26802 ft 459 kts 94°
2026-05-05 15:35 49.91976 18.44406 26193 ft 455 kts 94°
2026-05-05 15:35 49.91820 18.49292 25572 ft 452 kts 94°
2026-05-05 15:35 49.91663 18.54149 24969 ft 449 kts 94°
2026-05-05 15:35 49.91505 18.58963 24395 ft 446 kts 94°
2026-05-05 15:36 49.91348 18.63716 23836 ft 443 kts 94°
2026-05-05 15:36 49.91189 18.68460 23276 ft 440 kts 94°
2026-05-05 15:36 49.91029 18.73178 22651 ft 436 kts 95°
2026-05-05 15:36 49.90869 18.77851 22121 ft 431 kts 95°
2026-05-05 15:37 49.90708 18.82475 21566 ft 427 kts 95°
2026-05-05 15:37 49.90547 18.87053 21043 ft 422 kts 95°
2026-05-05 15:37 49.90386 18.91577 20542 ft 418 kts 95°
2026-05-05 15:37 49.90225 18.96064 20036 ft 414 kts 96°
2026-05-05 15:38 49.90064 19.00493 19557 ft 410 kts 96°
2026-05-05 15:38 49.89903 19.04858 19089 ft 406 kts 96°
2026-05-05 15:38 49.89742 19.09205 18643 ft 402 kts 96°
2026-05-05 15:38 49.89581 19.13511 18195 ft 398 kts 96°
2026-05-05 15:39 49.89420 19.17775 17695 ft 395 kts 96°
2026-05-05 15:39 49.89259 19.22005 17146 ft 392 kts 97°
2026-05-05 15:39 49.89116 19.26219 16632 ft 390 kts 94°
2026-05-05 15:39 49.89496 19.30397 16101 ft 394 kts 77°
2026-05-05 15:40 49.90213 19.34481 15549 ft 392 kts 78°
2026-05-05 15:40 49.90894 19.38582 15043 ft 391 kts 78°
2026-05-05 15:40 49.91584 19.42646 14544 ft 390 kts 78°
2026-05-05 15:40 49.92280 19.46705 14076 ft 388 kts 77°
2026-05-05 15:41 49.92975 19.50740 13587 ft 387 kts 77°
2026-05-05 15:41 49.93669 19.54765 13087 ft 385 kts 77°
2026-05-05 15:41 49.94349 19.58712 12670 ft 377 kts 77°
2026-05-05 15:41 49.95017 19.62595 12262 ft 368 kts 77°
2026-05-05 15:42 49.95668 19.66388 11888 ft 358 kts 77°
2026-05-05 15:42 49.96297 19.70069 11535 ft 349 kts 77°
2026-05-05 15:42 49.96913 19.73669 11237 ft 339 kts 77°
2026-05-05 15:42 49.97509 19.77166 10879 ft 332 kts 77°
2026-05-05 15:43 49.98096 19.80619 10412 ft 330 kts 77°
2026-05-05 15:43 49.98677 19.84032 10052 ft 320 kts 77°
2026-05-05 15:43 49.99048 19.86220 9819 ft 313 kts 77°
2026-05-05 15:43 49.99594 19.89447 9478 ft 304 kts 77°
2026-05-05 15:44 50.00123 19.92577 9158 ft 293 kts 77°
2026-05-05 15:44 50.00800 19.96587 8603 ft 287 kts 78°
2026-05-05 15:44 50.01302 19.99575 8130 ft 285 kts 78°
2026-05-05 15:44 50.01634 20.01552 7810 ft 284 kts 78°
2026-05-05 15:45 50.02132 20.04518 7361 ft 281 kts 78°
2026-05-05 15:45 50.02623 20.07445 6910 ft 279 kts 78°
2026-05-05 15:45 50.03112 20.10363 6473 ft 279 kts 78°
2026-05-05 15:45 50.03698 20.13225 6267 ft 277 kts 69°
2026-05-05 15:46 50.04423 20.16017 5985 ft 276 kts 73°
2026-05-05 15:46 50.05043 20.18865 5584 ft 280 kts 75°
2026-05-05 15:46 50.05657 20.21715 5283 ft 282 kts 70°
2026-05-05 15:46 50.06681 20.24244 5120 ft 279 kts 45°
2026-05-05 15:47 50.08308 20.25810 5092 ft 267 kts 17°
2026-05-05 15:47 50.10065 20.26118 5089 ft 249 kts 349°
2026-05-05 15:47 50.11587 20.25248 5143 ft 222 kts 320°
2026-05-05 15:47 50.12538 20.23507 5137 ft 205 kts 288°
2026-05-05 15:48 50.12867 20.21409 5125 ft 198 kts 272°
2026-05-05 15:48 50.12955 20.19267 5052 ft 198 kts 265°
2026-05-05 15:48 50.12902 20.17128 4960 ft 196 kts 261°
2026-05-05 15:48 50.12742 20.15027 4817 ft 194 kts 257°
2026-05-05 15:49 50.12526 20.12969 4659 ft 192 kts 256°
2026-05-05 15:49 50.12276 20.10924 4472 ft 191 kts 254°
2026-05-05 15:49 50.12009 20.08899 4267 ft 190 kts 254°
2026-05-05 15:49 50.11734 20.06885 4060 ft 190 kts 254°
2026-05-05 15:50 50.11456 20.04897 3847 ft 190 kts 253°
2026-05-05 15:50 50.11173 20.02889 3618 ft 189 kts 253°
2026-05-05 15:50 50.10896 20.00894 3384 ft 188 kts 254°
2026-05-05 15:50 50.10619 19.98905 3136 ft 187 kts 254°
2026-05-05 15:51 50.10347 19.96942 2916 ft 184 kts 253°
2026-05-05 15:51 50.10086 19.95029 2680 ft 180 kts 252°
2026-05-05 15:51 50.09838 19.93252 2468 ft 156 kts 253°
2026-05-05 15:51 50.09625 19.91731 2299 ft 132 kts 252°
2026-05-05 15:52 50.09434 19.90386 2119 ft 125 kts 253°
2026-05-05 15:52 50.09250 19.89072 1957 ft 124 kts 252°
2026-05-05 15:52 50.09066 19.87738 1781 ft 129 kts 252°
2026-05-05 15:52 50.08884 19.86342 1607 ft 132 kts 252°
2026-05-05 15:53 50.08710 19.84948 1584 ft 132 kts 253°
2026-05-05 15:53 50.08495 19.83546 1365 ft 134 kts 251°
2026-05-05 15:53 50.08287 19.82121 1121 ft 136 kts 254°
2026-05-05 15:53 50.08081 19.80665 932 ft 140 kts 255°
2026-05-05 15:54 50.07874 19.79205 793 ft 131 kts 257°
2026-05-05 15:54 50.07733 19.78193 790 ft 60 kts 258°
2026-05-05 15:54 50.07657 19.77652 790 ft 53 kts 257°
2026-05-05 15:54 50.07584 19.77140 796 ft 42 kts 258°
2026-05-05 15:55 50.07530 19.76877 797 ft 17 kts 220°
2026-05-05 15:55 50.07439 19.76864 793 ft 15 kts 168°
2026-05-05 15:55 50.07327 19.76906 791 ft 15 kts 145°
2026-05-05 15:55 50.07321 19.77057 791 ft 16 kts 78°
2026-05-05 15:56 50.07346 19.77238 791 ft 19 kts 77°
2026-05-05 15:56 50.07376 19.77451 790 ft 22 kts 77°
2026-05-05 15:56 50.07410 19.77695 790 ft 24 kts 77°
2026-05-05 15:56 50.07448 19.77963 790 ft 27 kts 78°
2026-05-05 15:57 50.07489 19.78263 790 ft 29 kts 78°
2026-05-05 15:57 50.07534 19.78586 791 ft 32 kts 77°
2026-05-05 15:57 50.07582 19.78933 791 ft 34 kts 78°
2026-05-05 15:57 50.07633 19.79301 790 ft 34 kts 78°
2026-05-05 15:58 50.07676 19.79609 790 ft 27 kts 78°
2026-05-05 15:58 50.07699 19.79852 790 ft 15 kts 115°
2026-05-05 15:58 50.07606 19.79900 790 ft 16 kts 168°
2026-05-05 15:58 50.07502 19.79938 791 ft 15 kts 168°
2026-05-05 15:59 50.07407 19.79973 791 ft 8 kts 155°
2026-05-05 15:59 50.07400 19.79982 791 ft 0 kts 133°
2026-05-05 15:59 50.07398 19.79983 791 ft 0 kts 143°
2026-05-05 16:00 50.07395 19.79984 791 ft 0 kts 171°
2026-05-05 16:00 50.07376 19.79986 791 ft 5 kts 174°
2026-05-05 16:00 50.07332 19.80000 791 ft 6 kts 167°
2026-05-05 16:00 50.07308 19.80008 791 ft 0 kts 167°